SL-12 R/B(AUX MOTOR), 32280

Orbit data source: Space-Track

SL-12 R/B(AUX MOTOR), 32280 is space debris in HEO originally from a launch on Fri, 26 Oct 2007 UTC launched from the Tyuratam Missile And Space Complex (TTMTR). Debris objects in space refer to the collection of defunct objects orbiting the Earth. Examples of debris include non-operational satellites, rocket bodies, and fragments generated from explosions, collisions, or faulty payload assembly.

Loading next visibility...
Identifier
32280, 2007-052F
Orbit
HEO
Last TLE update
3 days ago
Origin
Manufacturer
RKKE
Mission
Spacecraft
Bus & Motor
SOZ, Unknown motor
Mass
56 kg wet, 56 kg dry
Launch date (UTC)
2007-10-26 (18 years ago)
Launch vehicle
Unknown
Launch site
Tyuratam Missile And Space Complex (TTMTR)
Object type
Payload
Rocket body
Debris
Shape & HBR
Cyl, 1.1 m
Radar Cross Section
0.660 m², Medium (>0.1 m² and < 1m²)

Expand to show TLE details & history

TLE from 3 days ago
0 SL-12 R/B(AUX MOTOR)
1 32280U 07052F   25183.94570037 -.00000084  00000-0 -13877-3 0  9996
2 32280  65.3661  84.4278 5599970 236.8549  56.9128  4.21911074178284
Epoch: 2025-07-02T22:41Z
TLE epoch observation values (Epoch: 2025-07-02T22:41:48.511Z)
Latitude
-0.0001°
Longitude
-177.2233°
Altitude
9,644.679 km
Speed
5.012 km/s
True Right ascension
05h 37m 47s
True Declination
0° 00' 00"
Sunlit
Object was in daylight at epoch
Visualization orbit readout
Latitude
64.38546°
Longitude
-105.7562°
Altitude
16,011.74 km
Speed
3.315 km/s
Apparent Right ascension
08h 28m 25s
Apparent Declination
58° 12' 55"
Sunlit
Object is in daylight
Visualization observer readout
Local Sidereal Time
15:39:02
Azimuth
326.366° NNW
Elevation
25.018°
Doppler factor
1
Orbital elements
Apogee altitude
18,857.513 km
Perigee altitude
739.673 km
Semi-major axis
16,176.73 km
Eccentricity
0.56
Inclination
65.3661°
RAAN
84.4278°
Arg. of periapsis
236.8549°
True anomaly
Unknown
Mean anomaly
56.9128°
Eccentric anomaly
Unknown
Mean motion
1.05489 °/min
Orbital period
341.27 mins
BSTAR
-0.00013877
Loading maneuver chart data...
Loading SW <> Apogee altitude chart data...
Loading historical data...
Loading historical data...
Loading historical data...
Loading historical data...
Loading historical data...
Loading historical data...
Loading historical data...

SL-12 R/B(AUX MOTOR) Visibility forecast

Observer location: undefined°, undefined°

Span
Click to sort rows by Start time (UTC) header in descending order
Start Az.
Max El. time (UTC)
Max El. Az.
Max El.
End time (UTC)
End Az.
87 mins2025-07-06 03:41:59.674Z326.346° NNW2025-07-06 04:52:59.674Z257.144° W43.763°2025-07-06 05:08:59.674Z174.119° S
116 mins2025-07-06 13:12:59.674Z63.855° ENE2025-07-06 14:14:59.674Z43.918° NE17.085°2025-07-06 15:08:59.674Z25.948° NE
251 mins2025-07-06 17:30:59.674Z185.72° SSW2025-07-06 19:07:59.674Z286.58° WNW44.995°2025-07-06 21:41:59.674Z47.588° ENE
179 mins2025-07-07 00:42:59.674Z299.521° NW2025-07-07 03:34:59.674Z62.664° ENE44.7°2025-07-07 03:41:59.674Z128.656° SE
|